[[{"header":{"parameterUnit":"m.s-1","parameterCategory":1,"la1":30.2991,"la2":30.254,"lo1":-89.0895,"lo2":-89.0444,"dy":0.0017,"dx":0.0017,"nx":28,"ny":28,"refTime":"2024-03-17T21:00:00:Z","depth":0,"parameterNumber":2,"parameterNumberName":"U-component_of_WINDS"},"data":[0,0,0,0,0,0,0,0,0,0,0,0,0,0,0,0,0,0,0,0,0,0,0,0,0,0,0,0,0,0,0,0,0,0,0,0,0,0,0,0,0,0,0,0,0,0,0,0,0,0,0,0,0,0,0,0,0,0,-2.3447,-2.3448,0,-2.3535,-2.3536,-2.3537,-2.35,-2.3498,-2.3496,-2.3494,-2.3588,-2.3592,-2.3596,0,0,0,0,0,0,0,0,0,0,0,0,0,-2.325,-2.3254,-2.3447,-2.3448,-2.3449,-2.3535,-2.3536,-2.3537,-2.3501,-2.3498,-2.3496,-2.3493,-2.3586,-2.3591,-2.3597,0,0,0,0,0,0,0,0,0,0,0,0,0,-2.3337,-2.3255,-2.3447,-2.3441,-2.3441,-2.3535,-2.3536,-2.3538,-2.3501,-2.3498,-2.3495,-2.3492,-2.3584,-2.3591,-2.3598,-2.3702,0,0,-2.3618,-2.3621,0,0,0,0,0,0,0,0,-2.3332,-2.3344,-2.3441,-2.3442,-2.3442,-2.3503,-2.3501,-2.3593,-2.3502,-2.3479,-2.3494,-2.3491,-2.3562,-2.3571,-2.3594,-2.3707,-2.3711,-2.3619,-2.3623,-2.3626,-2.3627,0,0,0,0,0,0,0,-2.3326,-2.334,-2.3482,-2.3442,-2.3443,-2.3435,-2.3444,-2.3518,-2.3537,-2.3481,-2.3478,-2.3489,-2.3562,-2.3588,-2.3596,-2.3712,-2.3618,-2.3624,-2.3628,-2.3631,-2.3917,-2.392,0,0,0,0,0,0,-2.3319,-2.3335,-2.3479,-2.3485,-2.3378,-2.3441,-2.3451,-2.3487,-2.3537,-2.3541,-2.3492,-2.3487,-2.3578,-2.3589,-2.3599,-2.3726,-2.3625,-2.3632,-2.3636,-2.3913,-2.3917,-2.3921,0,0,0,0,0,0,-2.3315,-2.3332,-2.3476,-2.3409,-2.3427,-2.3448,-2.3489,-2.3491,-2.3516,-2.3545,-2.3548,-2.3514,-2.3576,-2.359,-2.3677,-2.3729,-2.3635,-2.3641,-2.3909,-2.3914,-2.3919,-2.398,0,0,0,0,0,0,-2.331,-2.3331,-2.337,-2.341,-2.343,-2.3551,-2.3492,-2.3495,-2.3528,-2.3522,-2.3567,-2.3571,-2.3575,-2.3667,-2.3684,-2.3737,-2.3646,-2.3904,-2.3911,-2.3918,-2.3974,-2.3987,-2.3999,0,0,0,0,0,-2.3303,-2.3384,-2.3373,-2.339,-2.348,-2.3554,-2.3566,-2.3567,-2.3532,-2.3572,-2.3591,-2.357,-2.3721,-2.3677,-2.3695,-2.375,-2.3901,-2.3909,-2.3917,-2.3968,-2.3985,-2.3998,0,0,0,0,0,0,-2.3351,-2.339,-2.3377,-2.3474,-2.3511,-2.3548,-2.3598,-2.3584,-2.3632,-2.3626,-2.3626,-2.3637,-2.3727,-2.3747,-2.3698,-2.3855,-2.3806,-2.3818,-2.3838,-2.3854,-2.3866,-2.386,-2.3652,0,0,0,0,0,-2.3373,-2.3429,-2.346,-2.3542,-2.3562,-2.3577,-2.3609,-2.3607,-2.3646,-2.3662,-2.3686,-2.3726,-2.3782,-2.3819,-2.3872,-2.3977,-2.3987,-2.4024,-2.4036,-2.4046,-2.4057,-2.4115,-2.4132,-2.3948,-2.3948,-2.3947,0,0,-2.3418,-2.3447,-2.3482,-2.3553,-2.3581,-2.364,-2.359,-2.3655,-2.3699,-2.3672,-2.3755,-2.3775,-2.3819,-2.3916,-2.3959,-2.3936,-2.411,-2.4057,-2.4064,-2.407,-2.4125,-2.4142,-2.4158,-2.3953,-2.3952,-2.3951,0,0,-2.3532,-2.3559,-2.3631,-2.366,-2.3704,-2.3713,-2.3731,-2.377,-2.3782,-2.3866,-2.3847,-2.39,-2.3997,-2.4029,-2.4058,-2.4185,-2.4169,-2.4203,-2.4268,-2.4324,-2.4339,-2.4351,-2.4398,-2.4414,-2.4213,-2.4213,-2.4214,0,-2.3584,-2.3671,-2.367,-2.3736,-2.3768,-2.3745,-2.3819,-2.3848,-2.3908,-2.3931,-2.3903,-2.4024,-2.4052,-2.4157,-2.4188,-2.4212,-2.4233,-2.4198,-2.4336,-2.4349,-2.4361,-2.4405,-2.4423,-2.4217,-2.4217,-2.4217,-2.4216,0,-2.3733,-2.3794,-2.3847,-2.3904,-2.3942,-2.4012,-2.4022,-2.4062,-2.4056,-2.407,-2.4156,-2.4189,-2.4249,-2.4273,-2.4269,-2.4378,-2.4362,-2.4335,-2.4286,-2.4383,-2.4424,-2.4441,-2.4223,-2.4222,-2.422,-2.4219,0,0,-2.3879,-2.3935,-2.3954,-2.398,-2.4027,-2.4075,-2.4144,-2.4202,-2.4236,-2.4278,-2.4337,-2.4419,-2.4395,-2.4429,-2.4428,-2.4477,-2.4577,-2.4445,-2.4446,-2.4469,-2.47,-2.472,-2.4739,-2.4566,-2.4569,-2.4572,-2.4697,0,-2.3997,-2.4117,-2.4118,-2.423,-2.4287,-2.4266,-2.4327,-2.4363,-2.4377,-2.4429,-2.4445,-2.4504,-2.4467,-2.4487,-2.4535,-2.4555,-2.4624,-2.4546,-2.4622,-2.4625,-2.4612,-2.4761,-2.4782,-2.4898,-2.4713,-2.4715,-2.4717,0,-2.415,-2.4196,-2.4313,-2.4352,-2.4376,-2.443,-2.4484,-2.4533,-2.4574,-2.4581,-2.4618,-2.4611,-2.4683,-2.4631,-2.4731,-2.4678,-2.4709,-2.4724,-2.4728,-2.4736,-2.4677,-2.4773,-2.4935,-2.4952,-2.4743,-2.4741,-2.4739,0,-2.4246,-2.4337,-2.4419,-2.4442,-2.4489,-2.4528,-2.455,-2.4588,-2.4623,-2.467,-2.4693,-2.4749,-2.4779,-2.4823,-2.4831,-2.4792,-2.4932,-2.488,-2.4941,-2.4941,-2.4971,-2.4969,-2.5141,-2.4991,-2.4991,-2.499,-2.499,0,-2.4377,-2.445,-2.4463,-2.4513,-2.4594,-2.4596,-2.4676,-2.4695,-2.4729,-2.4783,-2.477,-2.4822,-2.4829,-2.4883,-2.489,-2.4972,-2.4986,-2.4995,-2.4996,-2.4996,-2.4995,-2.5017,-2.5009,-2.4995,-2.4994,-2.4993,-2.4992,0,-2.4498,-2.4509,-2.4597,-2.4635,-2.4646,-2.4705,-2.4738,-2.4787,-2.4799,-2.4869,-2.4885,-2.4907,-2.497,-2.4982,-2.5057,-2.5061,-2.516,-2.5153,-2.5146,-2.5145,-2.5205,-2.52,-2.5397,-2.5423,-2.5256,-2.5258,-2.5259,0,-2.4581,-2.4636,-2.468,-2.4715,-2.4739,-2.4796,-2.4831,-2.4835,-2.4873,-2.4924,-2.4968,-2.5029,-2.5078,-2.518,-2.5203,-2.5261,-2.5255,-2.532,-2.5264,-2.5263,-2.5257,-2.5254,-2.526,-2.5331,-2.5333,-2.5335,-2.5336,0,-2.4728,-2.4731,-2.4782,-2.4836,-2.4879,-2.4921,-2.4962,-2.4992,-2.5002,-2.5045,-2.5109,-2.5147,-2.5224,-2.5285,-2.5343,-2.5367,-2.5354,-2.5354,-2.5371,-2.5372,-2.5366,-2.537,-2.5176,-2.5349,-2.5348,-2.5347,-2.5346,-2.5345,-2.4833,-2.4881,-2.4919,-2.4977,-2.5008,-2.5047,-2.5095,-2.5114,-2.5167,-2.5228,-2.5228,-2.5298,-2.5339,-2.5415,-2.5443,-2.5498,-2.5478,-2.5503,-2.5509,-2.5515,-2.5521,-2.5357,-2.5509,-2.5509,-2.5508,-2.5508,-2.5508,0,-2.4979,-2.5003,-2.5056,-2.5113,-2.5159,-2.5142,-2.5186,-2.5226,-2.5288,-2.5326,-2.5375,-2.5449,-2.5509,-2.5537,-2.5597,-2.5636,-2.5632,-2.5652,-2.5649,-2.5655,-2.5536,-2.5515,-2.5654,-2.5654,-2.5654,-2.5654,-2.5654,-2.5654,-2.5061,-2.5142,-2.515,-2.5246,-2.527,-2.5338,-2.5365,-2.5401,-2.5432,-2.5515,-2.5564,-2.5581,-2.5616,-2.5678,-2.5733,-2.574,-2.5763,-2.5786,-2.579,-2.5678,-2.5663,-2.5649,-2.563,-2.5791,-2.5791,-2.5905,-2.5906,-2.5906]},{"header":{"parameterUnit":"m.s-1","parameterCategory":1,"la1":30.2991,"la2":30.254,"lo1":-89.0895,"lo2":-89.0444,"dy":0.0017,"dx":0.0017,"nx":28,"ny":28,"refTime":"2024-03-17T21:00:00:Z","depth":0,"parameterNumber":3,"parameterNumberName":"V-component_of_WINDS"},"data":[0,0,0,0,0,0,0,0,0,0,0,0,0,0,0,0,0,0,0,0,0,0,0,0,0,0,0,0,0,0,0,0,0,0,0,0,0,0,0,0,0,0,0,0,0,0,0,0,0,0,0,0,0,0,0,0,0,0,-1.7044,-1.7043,0,-1.7013,-1.7012,-1.7012,-1.6952,-1.6951,-1.695,-1.6949,-1.6917,-1.6918,-1.6918,0,0,0,0,0,0,0,0,0,0,0,0,0,-1.7051,-1.7051,-1.7044,-1.7043,-1.7043,-1.7013,-1.7012,-1.7012,-1.6953,-1.6951,-1.695,-1.6948,-1.6917,-1.6918,-1.6918,0,0,0,0,0,0,0,0,0,0,0,0,0,-1.7036,-1.7051,-1.7044,-1.701,-1.7006,-1.7013,-1.7012,-1.7012,-1.6953,-1.6951,-1.6949,-1.6948,-1.6917,-1.6918,-1.6918,-1.6955,0,0,-1.6919,-1.6919,0,0,0,0,0,0,0,0,-1.7037,-1.7036,-1.7015,-1.7012,-1.7008,-1.6985,-1.7003,-1.6993,-1.6953,-1.6973,-1.6949,-1.6947,-1.6941,-1.6939,-1.6937,-1.6953,-1.6952,-1.6919,-1.6919,-1.6919,-1.692,0,0,0,0,0,0,0,-1.7038,-1.7037,-1.7031,-1.7015,-1.7011,-1.6996,-1.6992,-1.7001,-1.6967,-1.6971,-1.6967,-1.6964,-1.6939,-1.6937,-1.6936,-1.6952,-1.6919,-1.6919,-1.692,-1.692,-1.6994,-1.6996,0,0,0,0,0,0,-1.7044,-1.7038,-1.7032,-1.703,-1.7019,-1.6997,-1.6992,-1.6994,-1.6967,-1.6961,-1.6966,-1.6961,-1.6937,-1.6936,-1.6935,-1.6975,-1.6919,-1.692,-1.692,-1.6992,-1.6994,-1.6996,0,0,0,0,0,0,-1.7045,-1.7044,-1.7034,-1.7033,-1.7031,-1.6999,-1.7001,-1.6994,-1.6992,-1.6963,-1.6956,-1.697,-1.6936,-1.6934,-1.695,-1.6973,-1.692,-1.692,-1.699,-1.6993,-1.6995,-1.7057,0,0,0,0,0,0,-1.7045,-1.7045,-1.7059,-1.7034,-1.7031,-1.705,-1.7002,-1.6995,-1.6993,-1.6987,-1.6965,-1.696,-1.6935,-1.695,-1.695,-1.6973,-1.6921,-1.6988,-1.6991,-1.6994,-1.7052,-1.7061,-1.7068,0,0,0,0,0,-1.7046,-1.7078,-1.706,-1.706,-1.7048,-1.7051,-1.7049,-1.702,-1.6995,-1.7009,-1.6989,-1.6961,-1.697,-1.6952,-1.6952,-1.6975,-1.6986,-1.699,-1.6994,-1.7049,-1.7059,-1.7068,0,0,0,0,0,0,-1.7108,-1.7075,-1.7054,-1.708,-1.7069,-1.7041,-1.7058,-1.7032,-1.7028,-1.7023,-1.6986,-1.6981,-1.7001,-1.6989,-1.6969,-1.7008,-1.6974,-1.6978,-1.7015,-1.7025,-1.7033,-1.7035,-1.6921,0,0,0,0,0,-1.7125,-1.713,-1.71,-1.7126,-1.7121,-1.7091,-1.7091,-1.7068,-1.7056,-1.7051,-1.7033,-1.7021,-1.7021,-1.7022,-1.7021,-1.705,-1.7044,-1.7066,-1.7074,-1.7081,-1.7085,-1.7097,-1.7106,-1.7009,-1.7009,-1.7009,0,0,-1.7159,-1.7142,-1.7148,-1.7138,-1.7127,-1.7133,-1.7087,-1.7096,-1.71,-1.7052,-1.7065,-1.7051,-1.7036,-1.7058,-1.7067,-1.7049,-1.711,-1.7086,-1.7091,-1.7092,-1.7102,-1.7112,-1.712,-1.7012,-1.7011,-1.7011,0,0,-1.7225,-1.7213,-1.7232,-1.7221,-1.7204,-1.7183,-1.7188,-1.7164,-1.7152,-1.7165,-1.7129,-1.7132,-1.7134,-1.7124,-1.7119,-1.7178,-1.7151,-1.7179,-1.7221,-1.7234,-1.7242,-1.7248,-1.7268,-1.7276,-1.7183,-1.7183,-1.7183,0,-1.7271,-1.7278,-1.7245,-1.7255,-1.7251,-1.7208,-1.7226,-1.7217,-1.7201,-1.7199,-1.7179,-1.7179,-1.7165,-1.7183,-1.7198,-1.7195,-1.7199,-1.7182,-1.7243,-1.7249,-1.7255,-1.7274,-1.7282,-1.7187,-1.7186,-1.7186,-1.7186,0,-1.7334,-1.734,-1.7357,-1.7341,-1.7339,-1.7354,-1.7322,-1.7324,-1.7301,-1.7282,-1.7294,-1.7276,-1.7269,-1.7272,-1.725,-1.7286,-1.7275,-1.725,-1.7215,-1.7268,-1.7285,-1.7292,-1.7192,-1.719,-1.7189,-1.7189,0,0,-1.744,-1.7404,-1.7411,-1.7403,-1.738,-1.7383,-1.7395,-1.7388,-1.739,-1.7379,-1.7388,-1.7389,-1.7364,-1.7359,-1.7335,-1.7346,-1.7393,-1.7319,-1.7318,-1.7333,-1.743,-1.7449,-1.7458,-1.7374,-1.7376,-1.7377,-1.7431,0,-1.7501,-1.7519,-1.7488,-1.7513,-1.7516,-1.7474,-1.7483,-1.747,-1.7452,-1.7452,-1.7432,-1.7433,-1.7401,-1.7397,-1.7406,-1.7386,-1.7412,-1.7381,-1.7381,-1.7382,-1.7386,-1.7467,-1.7488,-1.7541,-1.7438,-1.7439,-1.7439,0,-1.7574,-1.7567,-1.7592,-1.7565,-1.7566,-1.7575,-1.7565,-1.7566,-1.755,-1.7535,-1.7528,-1.75,-1.7508,-1.7474,-1.7484,-1.7464,-1.7462,-1.7451,-1.7452,-1.7451,-1.7414,-1.7468,-1.7557,-1.7564,-1.745,-1.7449,-1.7448,0,-1.7648,-1.7644,-1.7658,-1.7652,-1.7622,-1.7629,-1.7617,-1.7599,-1.7596,-1.7587,-1.7584,-1.7577,-1.7573,-1.7567,-1.7537,-1.7515,-1.755,-1.7514,-1.7538,-1.7539,-1.7548,-1.7548,-1.7637,-1.7547,-1.7547,-1.7547,-1.7547,0,-1.7719,-1.7736,-1.769,-1.7699,-1.7716,-1.768,-1.7697,-1.7681,-1.7664,-1.7668,-1.7631,-1.7635,-1.7595,-1.7595,-1.7572,-1.7583,-1.7582,-1.757,-1.7563,-1.7573,-1.7574,-1.7571,-1.7567,-1.7549,-1.7549,-1.7548,-1.7548,0,-1.7805,-1.7775,-1.7787,-1.7757,-1.775,-1.7763,-1.7737,-1.7743,-1.7722,-1.7727,-1.7726,-1.7693,-1.769,-1.766,-1.7651,-1.7635,-1.7655,-1.7642,-1.7661,-1.7657,-1.7682,-1.768,-1.7773,-1.7782,-1.7687,-1.7688,-1.7689,0,-1.7852,-1.7864,-1.7834,-1.7834,-1.7823,-1.7824,-1.782,-1.7784,-1.7781,-1.7762,-1.777,-1.7765,-1.7758,-1.7756,-1.7731,-1.7723,-1.7709,-1.7742,-1.7708,-1.7717,-1.7709,-1.7708,-1.7709,-1.775,-1.7751,-1.7752,-1.7753,0,-1.7939,-1.7923,-1.7919,-1.7909,-1.7906,-1.7897,-1.7885,-1.7887,-1.7847,-1.7846,-1.7843,-1.7838,-1.7828,-1.7822,-1.781,-1.7797,-1.7768,-1.7763,-1.7768,-1.7778,-1.7789,-1.7783,-1.768,-1.7761,-1.7761,-1.776,-1.7759,-1.7759,-1.8006,-1.8014,-1.7993,-1.799,-1.7977,-1.7967,-1.797,-1.7949,-1.7945,-1.7934,-1.7913,-1.7912,-1.7893,-1.7873,-1.7862,-1.7861,-1.7844,-1.7852,-1.7853,-1.7856,-1.7861,-1.7789,-1.7859,-1.7858,-1.7858,-1.7858,-1.7858,0,-1.809,-1.8074,-1.8071,-1.8056,-1.8052,-1.8025,-1.801,-1.8009,-1.8009,-1.7994,-1.7987,-1.7983,-1.7977,-1.795,-1.7941,-1.7945,-1.7931,-1.7943,-1.7943,-1.794,-1.7877,-1.7873,-1.7954,-1.7954,-1.7954,-1.7954,-1.7954,-1.7954,-1.8133,-1.8144,-1.8126,-1.8129,-1.8113,-1.8112,-1.8106,-1.8096,-1.8083,-1.8079,-1.8074,-1.8056,-1.8036,-1.8024,-1.8017,-1.8009,-1.8007,-1.8024,-1.8012,-1.7954,-1.7944,-1.7936,-1.7932,-1.8024,-1.8024,-1.8075,-1.8075,-1.8075]}]]